Snowfall_Accumulation
nan nan nan nan nan nan nan nan nan nan nan nan nan nan nan nan nan 0.0 0.0 0.0 0.0 0.2 0.0 0.0 0.0 0.2 0.1 0.1 1.3 0.1 0.6 0.0 0.1 0.9 1.6 0.5 1.0 0.8 0.6 0.5 0.7 0.7 0.5 0.3 0.4 0.5 3.2 0.0 0.0 0.0 0.0 0.0 0.0 0.0
nan nan nan nan nan nan nan nan nan nan nan nan nan nan nan nan nan nan 0.0 0.0 0.0 0.0 0.2 0.0 0.0 0.0 0.0 0.0 0.1 0.3 0.4 0.1 0.2 0.9 1.5 1.5 2.0 0.8 0.3 1.3 0.0 1.0 0.8 1.8 0.7 0.0 0.0 0.0 0.0 0.0 0.0 0.0 0.0 0.0
nan nan nan nan nan nan nan nan nan nan nan nan nan nan nan nan nan nan 0.0 0.0 0.0 0.0 0.1 0.0 0.0 0.0 0.0 0.0 0.0 1.5 0.1 0.0 0.0 0.0 1.1 1.3 2.4 0.6 1.2 0.4 0.3 0.2 0.5 1.5 1.1 0.0 0.0 0.0 0.0 0.0 0.0 0.0 0.0 0.0
nan nan nan nan nan nan nan nan nan nan nan nan nan nan nan nan nan nan 0.0 0.0 0.0 0.0 7.5 0.6 0.0 0.0 0.0 0.0 0.0 0.0 0.0 0.0 0.0 0.0 1.4 3.3 1.9 0.2 0.3 0.3 0.3 0.1 0.0 0.1 0.1 0.0 0.0 0.0 0.0 0.0 0.0 0.0 0.0 0.0
nan nan nan nan nan nan nan nan nan nan nan nan nan nan nan nan nan nan 0.0 0.0 0.0 0.7 3.4 0.4 0.0 0.0 0.0 0.0 0.0 0.0 0.0 0.0 0.0 0.6 2.5 2.6 0.1 0.5 0.1 0.1 0.4 0.0 0.0 0.3 0.2 0.0 0.0 0.1 0.0 0.0 0.0 0.0 0.0 0.0
nan nan nan nan nan nan nan nan nan nan nan nan nan nan nan nan nan 0.0 0.6 0.0 0.0 0.0 3.8 7.7 0.0 0.0 0.0 0.0 0.0 0.0 0.0 0.0 0.0 1.2 1.9 0.9 0.0 0.1 4.4 1.3 0.0 0.0 0.0 0.0 0.0 0.0 0.0 0.0 0.0 0.0 0.0 0.0 0.0 0.0
nan nan nan nan nan nan nan nan nan nan nan nan nan nan nan nan 0.0 0.0 1.0 0.0 nan 0.0 3.2 12.2 4.8 0.0 0.0 0.0 0.0 0.0 0.0 0.0 0.0 0.1 0.7 0.4 0.1 0.6 3.5 4.3 0.0 0.0 0.0 0.0 0.0 0.0 0.0 0.0 0.0 0.0 0.0 0.0 0.0 0.0
nan nan nan nan nan nan nan nan nan nan nan nan nan nan nan nan nan 0.0 0.0 nan nan 0.0 0.9 17.3 6.7 0.3 0.0 0.0 0.6 0.0 0.0 0.0 0.3 0.1 0.2 0.1 0.1 0.4 5.7 0.1 0.0 0.0 0.0 0.0 0.0 0.0 0.0 0.0 0.0 0.0 0.0 0.0 0.0 0.0
nan nan nan nan nan nan nan nan nan nan nan nan nan nan 0.0 0.0 0.1 0.0 nan nan 0.0 1.3 12.3 10.6 4.9 5.0 0.0 0.1 0.1 0.5 0.0 4.8 0.8 1.5 0.6 0.1 1.4 4.9 0.1 0.0 0.0 0.0 0.0 0.0 0.0 0.0 0.0 0.0 0.0 0.0 0.0 0.0 0.0 0.0
nan nan nan nan nan nan nan nan nan nan nan nan 0.0 0.6 8.5 0.8 nan nan 0.2 1.3 2.1 4.1 5.0 8.2 0.2 3.2 0.3 0.8 3.2 3.2 3.4 6.8 10.2 3.9 0.2 3.2 1.5 0.0 0.0 0.0 0.0 0.0 0.0 0.0 0.0 0.0 0.0 0.0 0.0 0.0 0.0 0.0 0.0 0.0
nan nan nan nan nan nan nan nan nan nan nan 0.6 5.0 6.3 2.0 nan 0.6 4.6 15.9 18.3 14.3 19.0 7.1 4.5 2.6 3.1 0.2 5.4 3.6 3.2 8.1 7.0 13.1 2.0 2.3 3.8 1.5 0.2 0.0 0.1 0.0 0.0 0.0 0.0 0.0 0.0 0.0 0.0 0.0 0.0 0.0 0.0 0.0 0.0
nan nan nan nan nan nan nan nan nan 0.9 2.5 3.0 2.2 0.4 0.9 5.2 13.7 21.0 20.1 11.8 13.2 14.3 6.2 4.3 2.3 0.7 2.6 1.4 8.2 12.1 10.9 8.0 9.6 1.3 7.2 3.6 0.1 0.0 0.1 0.1 0.0 0.0 0.0 0.0 0.0 0.0 0.0 0.0 0.0 0.0 0.0 0.0 0.0 0.0
nan nan nan nan nan nan nan nan nan nan nan 0.4 4.1 9.7 12.0 15.9 45.9 23.1 18.7 13.0 11.4 3.4 2.8 2.0 4.9 2.0 4.5 2.7 9.7 8.7 18.4 12.5 1.6 11.1 2.4 0.5 0.1 0.1 0.3 0.1 0.0 0.0 0.0 0.0 0.0 0.0 0.0 0.0 0.0 0.0 0.0 0.1 0.2 0.4
nan nan nan nan nan nan nan nan nan 0.0 1.8 8.0 17.8 48.0 21.0 17.8 6.9 3.4 3.0 3.0 1.1 1.7 1.6 1.3 3.9 5.3 4.8 8.9 4.8 17.5 4.6 3.4 15.9 11.2 4.1 0.7 0.5 0.4 0.2 0.1 0.1 0.0 0.0 0.0 0.0 0.0 0.0 0.1 0.2 0.1 0.1 0.4 0.8 1.5
nan nan nan nan nan nan nan nan nan 0.0 1.9 17.2 15.5 34.0 15.8 3.6 4.0 3.2 3.2 2.7 2.7 1.9 2.8 4.8 4.7 3.2 8.9 14.0 6.6 8.2 15.3 13.1 2.6 2.6 0.9 1.0 0.9 0.9 1.1 0.7 0.7 0.2 0.3 0.3 0.5 0.6 0.9 0.7 0.7 1.5 2.0 2.1 1.9 2.3
nan nan 0.0 nan nan nan nan nan 1.2 0.7 7.3 17.5 18.5 17.0 3.7 6.9 8.2 6.3 6.1 5.1 3.3 3.3 3.4 6.5 11.6 16.2 14.7 13.4 15.0 10.6 13.5 7.1 3.8 3.9 2.5 2.1 1.9 1.6 1.9 2.9 4.6 4.2 3.9 2.2 3.0 3.0 3.0 2.2 1.8 2.4 3.3 3.5 2.7 1.5
nan 0.0 nan nan nan nan nan 0.8 2.8 18.0 21.1 25.5 23.6 3.5 7.1 7.2 7.9 6.5 4.2 4.3 3.3 6.5 11.0 12.1 21.5 15.1 7.8 13.9 9.1 3.5 9.4 3.0 3.4 3.5 3.1 2.5 2.9 3.5 3.1 3.8 5.0 6.2 7.5 5.2 5.5 3.7 4.0 3.5 3.2 1.6 2.0 1.4 0.7 0.4
0.0 0.0 nan nan nan nan 1.7 4.2 17.1 25.2 34.7 14.8 11.3 5.4 3.1 3.6 5.2 2.8 2.8 3.6 6.7 7.3 8.5 14.3 9.5 17.1 16.3 11.9 5.9 2.9 3.3 3.2 2.8 3.6 5.1 5.1 5.2 6.4 5.7 6.9 5.6 5.4 4.4 3.9 2.9 2.2 1.4 1.3 1.3 1.3 0.9 0.6 0.7 0.6
0.0 0.0 nan nan 0.0 2.2 13.3 23.5 11.4 33.2 24.9 7.2 5.1 3.3 1.8 2.8 2.1 2.2 2.8 3.0 5.5 4.5 7.9 11.4 17.3 18.9 7.3 4.0 4.3 4.0 4.4 3.1 3.9 5.2 6.3 5.8 4.6 4.9 4.4 4.2 3.3 2.5 3.1 2.0 1.6 1.4 1.5 0.8 0.6 0.5 0.4 0.3 0.2 0.1
nan nan nan nan nan 9.9 34.5 28.9 10.7 14.5 17.0 7.9 5.2 5.7 3.2 4.7 2.7 2.5 1.5 1.2 1.8 6.6 15.4 22.1 8.6 6.6 7.0 6.0 5.1 4.3 4.5 4.8 3.4 2.8 4.1 3.4 2.1 0.8 0.7 0.6 0.3 0.2 0.2 0.2 0.5 nan 0.4 0.2 0.1 0.1 0.0 0.1 0.1 0.1
nan nan nan 0.1 2.7 8.5 16.5 21.1 18.0 14.8 8.8 8.1 7.4 4.0 7.6 4.7 7.2 9.3 8.3 0.9 9.0 17.0 15.0 6.7 6.2 6.3 5.3 5.5 6.0 5.4 5.4 2.3 2.4 1.0 0.6 0.7 0.2 0.4 0.4 0.6 0.7 0.0 0.0 0.0 0.0 0.0 0.0 0.0 0.0 0.2 4.7 0.3 0.2 0.3
0.6 nan 3.0 2.1 25.0 33.8 26.0 12.7 12.5 8.5 14.2 10.9 9.6 6.6 15.8 18.7 15.7 12.9 5.6 18.7 19.8 8.6 6.9 6.0 5.4 5.2 4.6 4.3 3.1 1.3 0.7 0.1 0.1 0.1 nan 0.2 0.6 0.6 0.5 0.7 1.5 3.5 2.9 3.0 1.3 0.6 0.3 0.2 0.3 0.4 0.6 0.6 0.5 0.5
nan 1.9 11.1 16.9 34.8 36.2 39.9 8.1 15.7 14.8 15.1 17.9 14.5 15.4 18.7 19.1 11.1 4.5 16.6 11.1 8.4 6.7 5.4 4.0 2.9 1.4 1.1 0.5 0.1 0.0 0.1 0.1 0.0 0.0 0.0 0.0 0.0 0.4 0.9 0.5 0.8 4.3 4.5 1.2 0.7 0.9 1.7 nan 0.4 0.6 0.8 0.8 1.2 1.3
nan 23.6 36.4 32.8 30.2 36.4 17.6 22.8 8.7 10.9 12.7 13.7 18.5 16.8 17.8 13.4 8.5 17.3 15.5 7.6 6.3 6.8 4.7 4.8 3.1 1.2 0.9 1.5 0.8 0.3 0.2 0.2 0.3 0.2 0.0 0.4 0.9 0.1 0.0 0.1 0.0 0.3 0.5 0.5 1.0 1.5 1.3 1.3 nan 1.5 2.2 3.0 3.4 3.2
49.1 65.9 32.8 50.7 24.5 22.3 14.0 11.9 15.1 8.8 11.0 10.0 12.9 15.4 14.9 10.9 15.4 17.8 11.0 9.6 5.6 5.6 5.7 5.3 4.0 2.4 2.7 2.3 0.5 0.3 0.1 0.6 0.5 0.7 0.5 0.6 0.2 0.3 1.6 0.8 0.1 0.3 0.8 5.1 1.8 2.1 2.4 2.8 2.5 3.3 3.6 4.0 5.0 5.5
61.2 31.7 40.2 15.1 18.4 10.0 7.9 10.3 8.5 9.6 7.2 11.2 11.6 9.5 12.2 11.2 16.2 18.8 7.7 7.8 8.1 7.2 7.1 5.9 4.8 2.6 0.6 0.5 0.4 0.5 0.3 0.5 0.6 0.9 1.0 1.0 1.0 3.6 5.2 2.8 2.7 1.2 0.7 0.9 4.3 5.4 4.0 3.8 4.5 4.9 5.2 4.5 nan 5.9
44.9 28.5 10.1 2.0 2.4 1.0 2.8 2.7 2.3 5.3 10.4 11.9 9.8 9.1 11.2 20.4 14.5 5.0 3.8 4.6 4.7 4.4 3.3 2.0 1.3 1.1 0.9 0.7 0.6 0.6 0.6 1.5 1.9 1.5 0.7 1.2 1.1 0.9 3.1 6.6 6.6 1.8 2.7 4.9 4.9 5.0 6.1 5.0 5.8 6.2 6.7 6.6 6.0 6.9
8.9 5.5 7.4 9.6 4.5 3.9 3.9 4.3 5.4 8.1 7.2 4.3 3.9 11.4 12.6 9.5 7.7 4.8 5.2 5.2 7.2 6.7 6.2 4.0 2.6 2.0 2.6 2.3 2.3 1.5 3.0 3.2 4.1 4.9 4.6 3.1 3.1 3.1 3.0 3.3 4.5 nan 5.4 5.6 7.6 8.0 7.2 7.0 8.5 7.5 7.1 8.7 7.3 5.7
9.2 6.8 4.3 9.9 8.1 8.6 10.2 8.8 7.2 3.9 1.1 3.3 7.3 6.0 5.8 3.1 6.5 6.8 4.1 5.9 8.0 8.6 7.9 6.7 7.0 6.7 6.0 4.6 5.1 6.6 6.1 5.9 6.8 6.3 4.1 3.7 4.0 5.6 5.9 5.7 8.0 8.1 7.2 8.3 nan nan 9.0 11.3 12.0 11.5 9.4 8.1 6.8 8.8
8.7 8.6 7.0 7.9 8.0 7.8 8.7 4.8 8.4 7.7 2.9 2.8 2.6 3.7 3.7 5.6 7.2 5.7 6.9 7.6 9.1 11.2 9.6 10.1 9.4 12.6 11.1 9.1 10.4 8.0 7.4 7.3 6.1 5.7 11.3 8.6 5.9 5.7 9.4 10.8 9.6 9.4 9.4 10.2 9.0 8.4 nan 9.8 nan 10.1 10.8 10.0 9.3 9.5
6.6 10.2 8.9 8.7 10.3 12.4 10.5 6.8 8.8 3.5 6.9 10.5 9.0 8.6 7.4 8.9 6.3 5.5 5.6 6.0 8.5 12.0 12.4 14.0 13.9 13.9 10.1 10.3 12.0 11.1 9.6 8.0 9.6 8.9 7.4 9.4 10.5 10.4 11.3 11.0 11.1 12.2 11.7 10.6 9.9 9.4 10.1 10.7 11.1 12.1 10.2 11.0 9.8 9.5
9.4 12.3 10.6 9.3 14.5 15.8 12.6 15.0 16.0 13.8 14.0 13.5 13.6 13.9 11.7 10.1 8.1 7.4 5.7 11.1 11.2 9.4 nan 10.1 8.1 6.6 6.5 6.7 5.8 6.8 nan 7.7 9.6 9.8 10.8 10.4 10.0 9.1 9.1 10.7 12.7 12.9 12.2 11.4 10.8 10.3 11.7 13.5 12.8 12.3 10.9 11.5 10.9 9.0
18.5 15.3 16.6 12.6 18.9 17.2 16.0 15.9 10.9 20.3 15.9 15.3 12.6 11.6 12.2 6.6 5.8 6.5 6.3 8.3 6.0 6.3 7.4 7.7 7.5 7.7 7.8 8.5 7.4 7.2 nan 8.6 9.6 nan nan nan nan nan 11.6 11.4 10.6 10.1 9.7 9.5 10.3 11.2 12.3 13.1 13.8 11.0 11.3 12.1 11.3 10.0
Water_Equivalent
nan nan nan nan nan nan nan nan nan nan nan nan nan nan nan nan nan 0.00 0.00 0.00 0.00 0.04 0.01 0.00 0.00 0.03 0.01 0.01 0.16 0.02 0.07 0.00 0.01 0.13 0.20 0.07 0.10 0.10 0.07 0.05 0.07 0.07 0.06 0.05 0.06 0.11 0.51 0.00 0.00 0.00 0.00 0.00 0.00 0.00
nan nan nan nan nan nan nan nan nan nan nan nan nan nan nan nan nan nan 0.00 0.00 0.00 0.00 0.03 0.00 0.00 0.00 0.00 0.00 0.01 0.05 0.05 0.02 0.04 0.16 0.25 0.21 0.23 0.09 0.03 0.11 0.00 0.10 0.10 0.18 0.08 0.01 0.00 0.00 0.00 0.00 0.00 0.00 0.00 0.00
nan nan nan nan nan nan nan nan nan nan nan nan nan nan nan nan nan nan 0.00 0.00 0.00 0.01 0.01 0.00 0.00 0.00 0.00 0.00 0.00 0.24 0.02 0.00 0.00 0.00 0.22 0.19 0.29 0.08 0.14 0.04 0.04 0.02 0.09 0.18 0.13 0.00 0.00 0.01 0.00 0.00 0.00 0.00 0.00 0.00
nan nan nan nan nan nan nan nan nan nan nan nan nan nan nan nan nan nan 0.00 0.00 0.00 0.00 1.13 0.09 0.00 0.00 0.00 0.00 0.00 0.00 0.00 0.00 0.00 0.00 0.21 0.50 0.28 0.03 0.04 0.04 0.03 0.02 0.01 0.02 0.02 0.00 0.00 0.01 0.00 0.00 0.00 0.00 0.00 0.00
nan nan nan nan nan nan nan nan nan nan nan nan nan nan nan nan nan nan 0.00 0.00 0.00 0.09 0.55 0.06 0.00 0.00 0.00 0.00 0.00 0.00 0.00 0.00 0.00 0.08 0.33 0.39 0.01 0.07 0.01 0.02 0.08 0.00 0.00 0.04 0.03 0.00 0.01 0.02 0.00 0.00 0.00 0.00 0.00 0.00
nan nan nan nan nan nan nan nan nan nan nan nan nan nan nan nan nan 0.00 0.13 0.00 0.00 0.00 0.60 1.27 0.01 0.00 0.00 0.00 0.00 0.00 0.00 0.00 0.00 0.20 0.31 0.13 0.00 0.01 0.87 0.22 0.00 0.00 0.00 0.00 0.00 0.00 0.00 0.00 0.00 0.00 0.00 0.00 0.00 0.00
nan nan nan nan nan nan nan nan nan nan nan nan nan nan nan nan 0.00 0.00 0.31 0.00 nan 0.00 0.64 2.53 0.94 0.00 0.00 0.00 0.00 0.00 0.00 0.00 0.00 0.03 0.13 0.09 0.03 0.10 0.71 0.65 0.00 0.00 0.00 0.00 0.00 0.00 0.00 0.00 0.00 0.00 0.00 0.00 0.00 0.00
nan nan nan nan nan nan nan nan nan nan nan nan nan nan nan nan nan 0.00 0.00 nan nan 0.00 0.18 3.44 1.46 0.07 0.00 0.00 0.19 0.00 0.00 0.01 0.05 0.02 0.05 0.03 0.01 0.07 0.89 0.01 0.00 0.00 0.00 0.00 0.00 0.00 0.00 0.00 0.00 0.00 0.00 0.00 0.00 0.00
nan nan nan nan nan nan nan nan nan nan nan nan nan nan 0.00 0.00 0.03 0.00 nan nan 0.00 0.29 2.79 2.37 1.06 1.38 0.00 0.02 0.02 0.10 0.00 0.80 0.19 0.32 0.17 0.01 0.24 0.74 0.02 0.00 0.00 0.00 0.00 0.00 0.00 0.00 0.00 0.00 0.00 0.00 0.00 0.00 0.00 0.00
nan nan nan nan nan nan nan nan nan nan nan nan 0.00 0.20 2.37 0.32 nan nan 0.08 0.42 0.80 1.52 1.21 1.42 0.02 0.56 0.05 0.14 0.56 0.49 0.60 1.09 2.01 0.56 0.05 0.52 0.24 0.00 0.00 0.00 0.00 0.00 0.00 0.00 0.00 0.01 0.01 0.01 0.00 0.00 0.00 0.00 0.00 0.00
nan nan nan nan nan nan nan nan nan nan nan 0.22 1.36 1.40 0.80 nan 0.18 1.08 3.59 3.96 3.37 3.65 1.61 0.73 0.38 0.42 0.04 0.88 0.54 0.60 1.41 1.27 1.97 0.34 0.36 0.73 0.30 0.03 0.01 0.01 0.00 0.00 0.00 0.00 0.00 0.00 0.00 0.00 0.00 0.00 0.00 0.00 0.00 0.00
nan nan nan nan nan nan nan nan nan 0.31 0.68 0.76 0.49 0.15 0.28 1.07 2.53 3.47 3.20 2.08 2.18 2.02 1.00 0.76 0.39 0.11 0.46 0.39 1.25 1.91 1.76 1.39 1.37 0.20 1.13 0.57 0.02 0.00 0.02 0.02 0.01 0.00 0.00 0.00 0.00 0.00 0.00 0.00 0.00 0.00 0.00 0.00 0.00 0.00
nan nan nan nan nan nan nan nan nan nan nan 0.11 0.79 2.19 2.22 2.96 7.27 3.34 2.34 2.14 2.10 0.68 0.66 0.46 0.94 0.41 0.74 0.55 1.78 1.40 2.61 1.89 0.31 1.76 0.34 0.13 0.02 0.03 0.07 0.02 0.01 0.00 0.00 0.00 0.00 0.00 0.00 0.00 0.00 0.00 0.01 0.01 0.03 0.07
nan nan nan nan nan nan nan nan nan 0.00 0.45 1.51 3.80 8.36 3.26 2.75 1.08 0.65 0.47 0.66 0.26 0.45 0.34 0.25 0.71 0.91 0.80 1.41 0.70 2.73 0.61 0.51 2.10 1.38 0.58 0.12 0.09 0.07 0.03 0.03 0.03 0.01 0.01 0.01 0.00 0.00 0.01 0.01 0.03 0.02 0.03 0.06 0.11 0.21
nan nan nan nan nan nan nan nan nan 0.00 0.36 3.74 3.13 5.08 2.56 0.60 0.78 0.70 0.95 0.69 0.61 0.37 0.50 0.75 0.81 0.47 1.61 2.16 0.89 1.26 1.96 1.74 0.37 0.39 0.19 0.25 0.15 0.17 0.18 0.12 0.10 0.03 0.04 0.04 0.08 0.10 0.14 0.11 0.10 0.20 0.28 0.30 0.27 0.29
nan nan 0.00 nan nan nan nan nan 0.45 0.22 2.44 4.59 3.93 2.96 0.49 1.23 1.50 1.24 1.38 1.05 0.56 0.52 0.60 1.10 1.95 2.43 2.12 1.85 2.07 1.45 1.83 0.87 0.63 0.75 0.46 0.38 0.28 0.24 0.25 0.36 0.58 0.55 0.50 0.29 0.38 0.40 0.40 0.27 0.22 0.28 0.40 0.42 0.33 0.18
nan 0.00 nan nan nan nan nan 0.30 0.73 5.60 5.79 6.11 4.56 0.48 1.00 1.15 1.17 0.81 0.50 0.48 0.43 0.90 1.82 2.00 2.84 1.87 1.31 1.87 1.19 0.68 1.42 0.55 0.68 0.60 0.45 0.31 0.35 0.40 0.37 0.46 0.61 0.75 0.90 0.61 0.64 0.45 0.48 0.42 0.39 0.18 0.22 0.15 0.08 0.05
0.02 0.00 nan nan nan nan 0.62 1.36 4.54 6.38 6.67 3.15 1.69 0.87 0.35 0.42 0.60 0.32 0.34 0.45 0.82 1.04 1.25 2.43 1.55 2.52 2.19 1.55 0.80 0.45 0.51 0.60 0.46 0.47 0.62 0.61 0.61 0.76 0.68 0.78 0.64 0.61 0.49 0.44 0.34 0.27 0.19 0.17 0.15 0.15 0.11 0.09 0.10 0.10
0.00 0.00 nan nan 0.00 0.86 4.01 5.75 3.57 5.64 4.21 1.28 0.73 0.49 0.28 0.32 0.25 0.26 0.32 0.36 0.69 0.58 1.40 1.94 2.53 2.43 0.77 0.56 0.64 0.76 0.73 0.45 0.41 0.56 0.71 0.67 0.52 0.55 0.49 0.51 0.39 0.29 0.35 0.22 0.17 0.14 0.15 0.09 0.06 0.06 0.04 0.03 0.03 0.02
nan nan nan nan nan 2.72 6.79 5.66 2.67 2.48 2.48 1.14 0.87 0.91 0.52 0.61 0.32 0.29 0.17 0.18 0.35 1.63 2.74 3.22 0.92 0.56 0.63 0.64 0.63 0.53 0.55 0.57 0.40 0.30 0.42 0.36 0.25 0.12 0.11 0.11 0.03 0.03 0.02 0.03 0.08 nan 0.08 0.02 0.02 0.01 0.00 0.01 0.02 0.02
nan nan nan 0.04 0.93 2.81 4.50 3.76 2.85 2.43 1.54 1.11 1.22 0.71 1.00 0.99 1.28 1.77 1.68 0.31 1.93 3.02 2.13 0.62 0.54 0.59 0.53 0.60 0.65 0.63 0.63 0.29 0.28 0.11 0.06 0.11 0.02 0.10 0.10 0.15 0.17 0.00 0.01 0.00 0.00 0.00 0.00 0.00 0.00 0.06 0.98 0.04 0.02 0.05
0.24 nan 1.16 0.80 6.83 7.38 4.67 2.79 2.15 1.35 1.86 1.60 1.50 1.13 2.49 2.88 2.46 2.22 1.32 3.04 2.79 1.12 0.59 0.50 0.49 0.49 0.44 0.36 0.26 0.14 0.08 0.01 0.01 0.01 nan 0.02 0.10 0.13 0.12 0.17 0.26 0.58 0.51 0.58 0.26 0.11 0.06 0.05 0.06 0.08 0.11 0.12 0.09 0.09
nan 0.58 3.06 4.89 5.91 5.99 6.42 1.66 2.10 2.00 1.92 2.45 2.13 2.06 2.54 2.79 1.80 1.00 2.47 1.68 1.08 0.62 0.50 0.40 0.28 0.14 0.12 0.05 0.02 0.01 0.01 0.01 0.01 0.00 0.00 0.00 0.00 0.10 0.22 0.11 0.16 0.72 0.74 0.23 0.14 0.16 0.30 nan 0.08 0.12 0.13 0.14 0.16 0.17
nan 5.37 6.23 5.24 4.65 5.15 2.46 3.00 1.15 1.32 1.55 1.65 2.33 2.00 2.14 1.71 1.19 2.41 1.89 0.91 0.65 0.70 0.49 0.41 0.38 0.19 0.15 0.21 0.14 0.07 0.05 0.06 0.07 0.05 0.01 0.09 0.17 0.02 0.01 0.03 0.01 0.06 0.11 0.11 0.19 0.25 0.21 0.20 nan 0.23 0.31 0.39 0.41 0.37
9.20 11.17 5.19 7.84 3.42 2.76 1.57 1.25 1.78 0.95 1.23 1.10 1.40 1.74 1.74 1.20 1.91 2.23 1.16 1.05 0.65 0.63 0.60 0.51 0.44 0.32 0.45 0.42 0.09 0.06 0.03 0.14 0.11 0.13 0.12 0.13 0.05 0.05 0.26 0.14 0.02 0.05 0.13 0.79 0.24 0.28 0.34 0.39 0.34 0.44 0.44 0.44 0.53 0.58
9.57 4.65 5.95 1.91 2.30 1.14 0.86 1.11 0.89 1.03 0.77 1.21 1.26 0.98 1.36 1.26 1.88 2.23 0.73 0.88 0.97 0.87 0.97 0.88 0.71 0.37 0.10 0.10 0.07 0.08 0.05 0.10 0.13 0.16 0.19 0.20 0.19 0.62 0.89 0.40 0.39 0.19 0.10 0.14 0.66 0.69 0.52 0.49 0.52 0.52 0.55 0.48 nan 0.70
6.33 3.77 1.23 0.26 0.26 0.10 0.28 0.27 0.24 0.56 1.12 1.26 1.03 0.92 1.24 2.31 1.54 0.42 0.38 0.46 0.53 0.59 0.47 0.38 0.27 0.22 0.17 0.15 0.11 0.13 0.13 0.29 0.35 0.29 0.14 0.23 0.21 0.18 0.60 1.01 0.85 0.26 0.36 0.67 0.69 0.65 0.74 0.62 0.66 0.70 0.77 0.81 0.73 0.81
1.07 0.60 0.78 1.10 0.45 0.40 0.39 0.41 0.56 0.85 0.74 0.39 0.40 1.21 1.37 0.94 0.73 0.46 0.50 0.57 0.81 0.84 0.85 0.59 0.45 0.39 0.45 0.40 0.38 0.24 0.47 0.51 0.61 0.63 0.61 0.42 0.42 0.52 0.49 0.56 0.74 nan 0.88 0.87 1.05 1.10 1.00 0.91 1.05 0.93 0.82 1.07 0.97 0.80
1.01 0.76 0.46 1.07 0.81 0.89 1.10 0.94 0.73 0.37 0.09 0.31 0.77 0.59 0.52 0.24 0.70 0.69 0.43 0.68 0.95 0.94 0.81 0.67 0.80 0.98 0.81 0.59 0.65 0.84 0.80 0.73 0.75 0.64 0.40 0.41 0.47 0.76 0.83 0.79 1.05 1.12 1.04 1.15 nan nan 1.16 1.42 1.50 1.45 1.21 1.03 0.89 1.18
0.94 0.99 0.74 0.83 0.84 0.80 0.90 0.45 0.90 0.79 0.28 0.29 0.27 0.34 0.31 0.51 0.71 0.67 0.72 0.79 0.91 1.17 1.23 1.36 1.24 1.65 1.36 1.09 1.18 0.86 0.84 0.82 0.83 0.72 1.28 0.97 0.75 0.78 1.19 1.29 1.14 1.14 1.22 1.26 1.11 1.13 nan 1.34 nan 1.29 1.25 1.09 1.03 1.02
0.72 1.18 0.92 0.87 1.03 1.35 1.04 0.58 0.88 0.30 0.67 1.11 0.94 0.94 0.76 0.92 0.60 0.55 0.53 0.61 0.86 1.37 1.47 1.68 1.66 1.71 1.13 1.12 1.36 1.23 1.01 0.92 1.04 0.98 0.87 1.10 1.21 1.23 1.30 1.27 1.30 1.42 1.35 1.22 1.12 1.06 1.14 1.14 1.19 1.27 1.02 1.12 1.01 0.97
1.02 1.35 1.17 0.93 1.61 1.81 1.28 1.61 1.70 1.47 1.48 1.46 1.44 1.49 1.18 1.04 0.72 0.65 0.56 1.14 1.16 0.92 nan 1.09 0.81 0.69 0.76 0.81 0.76 0.88 nan 0.92 1.07 1.07 1.16 1.16 1.16 1.00 1.01 1.20 1.49 1.48 1.37 1.25 1.17 1.08 1.21 1.42 1.31 1.26 1.08 1.17 1.08 0.86
2.15 1.70 1.87 1.28 2.23 1.91 1.74 1.86 1.06 2.46 1.69 1.57 1.20 1.10 1.22 0.61 0.45 0.55 0.49 0.83 0.69 0.68 0.77 0.87 0.86 0.93 0.78 0.82 0.83 0.86 nan 1.01 1.13 nan nan nan nan nan 1.34 1.29 1.19 1.08 1.00 0.97 1.05 1.15 1.22 1.30 1.42 1.06 1.10 1.20 1.13 0.97
SL_Ratio
nan nan nan nan nan nan nan nan nan nan nan nan nan nan nan nan nan nan nan nan nan 5.6 5.4 nan nan 5.9 5.9 6.4 8.1 6.6 7.7 7.8 7.8 7.0 8.2 8.1 9.5 8.5 9.3 9.0 9.9 10.2 7.6 5.8 6.6 4.9 6.2 nan nan nan nan nan nan nan
nan nan nan nan nan nan nan nan nan nan nan nan nan nan nan nan nan nan nan nan nan 10.0 6.0 nan nan nan 0.0 nan 6.2 6.2 7.1 6.6 5.9 5.6 6.1 7.4 8.6 8.4 9.2 11.2 nan 9.4 8.1 9.8 8.1 6.3 5.0 6.7 nan nan nan nan nan nan
nan nan nan nan nan nan nan nan nan nan nan nan nan nan nan nan nan nan nan nan nan 4.8 6.4 nan nan nan nan nan nan 6.2 6.1 6.0 3.1 nan 5.0 6.9 8.2 6.9 8.5 8.0 8.0 6.6 6.1 8.4 8.3 6.7 6.0 5.3 0.0 nan nan nan nan nan
nan nan nan nan nan nan nan nan nan nan nan nan nan nan nan nan nan nan nan nan nan 5.0 6.6 6.5 nan nan nan nan nan nan nan nan nan 6.0 6.8 6.7 7.0 7.1 7.9 7.9 8.4 7.3 5.4 6.7 7.4 0.0 0.0 5.0 3.3 nan nan nan nan nan
nan nan nan nan nan nan nan nan nan nan nan nan nan nan nan nan nan nan nan nan nan 7.1 6.1 6.4 nan nan nan nan nan nan nan nan 7.1 6.6 7.5 6.9 5.8 6.7 6.9 6.3 5.7 10.0 5.8 7.1 7.4 5.7 5.2 5.2 nan nan 0.0 nan nan nan
nan nan nan nan nan nan nan nan nan nan nan nan nan nan nan nan nan nan 4.3 nan nan nan 6.2 6.0 5.2 nan nan nan nan nan nan nan 5.7 5.8 6.3 6.4 nan 7.0 5.0 5.7 nan nan nan nan nan nan nan 4.3 nan nan nan nan nan nan
nan nan nan nan nan nan nan nan nan nan nan nan nan nan nan nan nan nan 3.3 nan nan nan 5.0 4.8 5.1 nan nan nan nan nan nan nan 6.4 4.3 5.8 4.9 5.4 5.9 4.9 6.7 5.0 nan nan nan nan 0.0 5.5 5.0 6.7 nan nan nan nan nan
nan nan nan nan nan nan nan nan nan nan nan nan nan nan nan nan nan 5.0 nan nan nan nan 5.1 5.0 4.5 3.7 nan 3.3 3.4 nan 10.0 6.7 7.4 6.1 3.6 4.8 6.9 5.6 6.3 5.6 3.3 nan nan nan nan nan nan nan nan nan nan nan nan nan
nan nan nan nan nan nan nan nan nan nan nan nan nan nan nan 0.0 2.5 2.5 nan nan nan 4.5 4.4 4.5 4.6 3.6 10.0 3.3 4.8 4.6 7.0 5.9 4.3 4.7 3.8 7.4 6.1 6.6 6.0 nan nan nan nan nan nan nan nan nan 0.0 nan 10.0 0.0 10.0 nan
nan nan nan nan nan nan nan nan nan nan nan nan 0.0 3.0 3.6 2.5 nan nan 2.7 3.1 2.6 2.7 4.1 5.8 6.3 5.6 6.2 5.5 5.8 6.5 5.7 6.3 5.1 7.0 4.8 6.2 6.2 0.0 nan 5.7 nan nan nan nan nan 3.7 3.0 3.2 nan nan 0.0 10.0 nan nan
nan nan nan nan nan nan nan nan nan nan nan 2.6 3.7 4.5 2.5 nan 3.3 4.3 4.4 4.6 4.2 5.2 4.4 6.1 6.9 7.3 3.9 6.1 6.7 5.3 5.7 5.5 6.7 6.0 6.3 5.2 5.2 5.5 4.8 4.7 5.0 nan nan nan nan nan nan nan nan nan nan nan nan nan
nan nan nan nan nan nan nan nan nan 3.0 3.6 4.0 4.4 3.0 3.4 4.8 5.4 6.1 6.3 5.7 6.1 7.1 6.2 5.6 5.8 5.8 5.6 3.6 6.6 6.3 6.2 5.7 7.0 6.3 6.4 6.3 3.9 5.6 5.5 5.1 5.0 nan nan nan nan nan nan nan nan nan nan 0.0 3.3 5.0
nan nan nan nan nan nan nan nan nan nan nan 4.1 5.2 4.5 5.4 5.4 6.3 6.9 8.0 6.1 5.4 5.0 4.3 4.4 5.2 4.8 6.0 5.0 5.4 6.2 7.0 6.6 5.2 6.3 7.0 4.2 3.4 5.3 4.7 4.7 5.5 nan nan nan nan nan nan nan nan nan 5.3 5.1 5.3 6.3
nan nan nan nan nan nan nan nan nan nan 4.0 5.3 4.7 5.7 6.5 6.5 6.4 5.2 6.3 4.6 4.3 3.8 4.7 5.4 5.5 5.8 6.0 6.3 6.9 6.4 7.5 6.8 7.6 8.1 7.0 5.5 6.0 5.4 5.4 4.6 4.7 4.5 4.3 4.5 5.0 4.4 5.9 5.3 5.9 5.1 5.3 5.9 6.6 7.4
nan nan nan nan nan nan nan nan nan 2.0 5.2 4.6 5.0 6.7 6.2 6.0 5.1 4.6 3.4 3.9 4.4 5.1 5.6 6.4 5.8 7.0 5.5 6.5 7.4 6.5 7.8 7.5 7.0 6.6 4.5 4.0 6.3 5.7 5.9 6.1 6.9 6.7 6.9 6.5 6.4 6.3 6.6 6.9 7.1 7.5 7.3 7.2 7.2 7.7
nan nan nan nan nan nan nan nan 2.7 3.4 3.0 3.8 4.7 5.7 7.4 5.6 5.5 5.1 4.4 4.9 5.9 6.5 5.7 5.9 5.9 6.7 6.9 7.3 7.2 7.3 7.4 8.2 6.1 5.2 5.5 5.6 6.7 6.9 7.7 7.9 8.0 7.8 7.9 7.7 7.7 7.5 7.6 8.2 8.4 8.5 8.2 8.3 8.2 8.2
nan 3.3 nan nan nan nan nan 2.6 3.8 3.2 3.6 4.2 5.2 7.3 7.1 6.2 6.7 8.0 8.5 8.8 7.6 7.2 6.0 6.1 7.6 8.1 5.9 7.4 7.7 5.2 6.6 5.5 5.0 5.8 6.9 8.1 8.1 8.7 8.3 8.2 8.2 8.3 8.2 8.5 8.6 8.2 8.3 8.3 8.3 8.7 9.3 9.2 8.8 8.6
2.6 nan nan nan nan nan 2.8 3.1 3.8 3.9 5.2 4.7 6.7 6.3 8.9 8.6 8.7 8.7 8.4 8.0 8.2 7.0 6.8 5.9 6.1 6.8 7.4 7.7 7.5 6.5 6.4 5.3 6.1 7.7 8.2 8.4 8.5 8.4 8.4 8.8 8.8 8.7 9.0 8.9 8.5 8.0 7.6 7.6 8.4 8.7 8.2 7.3 6.7 6.6
6.0 nan nan nan nan 2.6 3.3 4.1 3.2 5.9 5.9 5.6 6.9 6.8 6.3 9.0 8.3 8.6 8.8 8.4 8.0 7.7 5.7 5.9 6.8 7.8 9.5 7.1 6.7 5.2 6.0 6.8 9.4 9.2 8.9 8.7 8.8 9.0 8.9 8.3 8.5 8.5 8.8 8.9 9.3 9.6 9.5 9.1 9.1 8.9 9.0 8.6 9.1 7.8
nan nan nan nan nan 3.6 5.1 5.1 4.0 5.9 6.8 7.0 6.0 6.2 6.2 7.7 8.3 8.8 8.6 6.5 5.1 4.0 5.6 6.9 9.4 11.9 11.1 9.4 8.1 8.0 8.1 8.4 8.7 9.5 9.8 9.3 8.7 6.7 6.3 5.1 9.0 6.3 8.8 7.2 5.9 nan 5.3 9.2 8.8 8.5 8.7 7.7 6.5 6.2
nan nan nan 2.5 3.0 3.0 3.7 5.6 6.3 6.1 5.7 7.3 6.1 5.6 7.6 4.8 5.6 5.3 4.9 3.1 4.7 5.6 7.0 10.8 11.5 10.7 9.8 9.3 9.2 8.6 8.6 7.9 8.6 9.1 9.4 6.3 8.7 4.4 4.1 3.8 4.3 5.0 4.4 10.0 5.0 5.6 10.0 10.0 nan 3.9 4.8 6.8 7.4 6.8
2.5 nan 2.6 2.6 3.7 4.6 5.6 4.6 5.8 6.3 7.6 6.8 6.4 5.9 6.4 6.5 6.4 5.8 4.2 6.1 7.1 7.6 11.7 11.9 11.0 10.6 10.5 11.9 11.8 9.8 8.9 7.9 7.8 7.7 nan 9.1 5.9 4.7 4.4 4.4 5.6 6.0 5.7 5.2 5.0 5.3 4.8 4.2 4.5 5.2 6.1 5.2 5.7 5.7
nan 3.3 3.6 3.5 5.9 6.0 6.2 4.8 7.5 7.4 7.9 7.3 6.8 7.5 7.3 6.9 6.2 4.5 6.7 6.6 7.8 10.8 10.7 9.8 10.3 10.3 9.1 11.2 5.9 4.2 4.1 4.3 4.8 10.0 10.0 10.0 3.8 4.0 4.4 4.6 5.1 6.0 6.1 5.2 4.9 5.5 5.6 nan 5.1 5.5 6.1 6.1 7.5 7.8
nan 4.4 5.9 6.3 6.5 7.1 7.2 7.6 7.6 8.3 8.2 8.4 7.9 8.4 8.3 7.9 7.1 7.2 8.2 8.4 9.7 9.8 9.5 11.6 8.4 6.1 5.9 7.2 5.9 4.0 3.4 3.4 4.2 3.9 3.3 4.9 5.4 4.9 4.4 4.7 4.6 4.8 4.9 4.6 5.2 6.3 6.5 6.7 nan 6.4 7.1 7.7 8.1 8.7
5.3 5.9 6.3 6.5 7.2 8.1 8.9 9.5 8.5 9.3 9.0 9.0 9.2 8.8 8.6 9.1 8.1 8.0 9.5 9.1 8.6 8.9 9.4 10.2 9.2 7.5 6.0 5.5 6.1 4.2 3.9 4.4 4.7 5.7 4.4 4.4 4.8 5.5 6.1 5.7 6.7 5.9 5.6 6.4 7.6 7.5 7.1 7.3 7.3 7.4 8.3 9.0 9.4 9.5
6.4 6.8 6.8 7.9 8.0 8.8 9.3 9.3 9.5 9.3 9.3 9.2 9.2 9.7 9.0 8.9 8.6 8.4 10.6 8.8 8.4 8.3 7.3 6.7 6.8 7.0 5.9 4.9 4.9 5.3 4.8 4.7 4.8 5.5 5.3 5.3 5.2 5.8 5.9 6.9 7.1 6.3 6.7 6.6 6.5 7.9 7.8 7.8 8.7 9.4 9.3 9.3 nan 8.5
7.1 7.6 8.2 7.8 9.4 10.3 10.0 9.8 9.6 9.4 9.3 9.4 9.5 9.9 9.0 8.8 9.4 12.0 10.2 10.0 8.9 7.5 7.0 5.3 4.9 5.2 5.1 5.2 5.0 4.6 4.6 5.0 5.5 5.3 5.0 5.5 5.3 4.9 5.2 6.5 7.8 6.9 7.6 7.3 7.1 7.6 8.2 8.1 8.7 8.8 8.7 8.2 8.2 8.6
8.3 9.2 9.5 8.8 9.8 9.9 10.2 10.6 9.7 9.4 9.7 10.8 9.9 9.4 9.1 10.0 10.5 10.4 10.4 9.2 8.9 8.0 7.4 6.7 5.8 5.0 5.7 5.8 6.1 6.5 6.4 6.3 6.7 7.8 7.5 7.4 7.3 5.9 6.0 5.8 6.1 nan 6.1 6.4 7.3 7.2 7.3 7.7 8.1 8.1 8.6 8.1 7.5 7.2
9.1 9.0 9.2 9.2 10.0 9.6 9.2 9.4 9.8 10.4 11.7 10.7 9.5 10.2 11.2 12.9 9.3 9.9 9.5 8.8 8.4 9.1 9.8 9.9 8.7 6.9 7.5 7.7 7.8 7.8 7.6 8.1 9.2 9.9 10.3 8.9 8.4 7.4 7.0 7.2 7.6 7.2 6.9 7.2 nan nan 7.8 8.0 8.0 7.9 7.7 7.8 7.7 7.5
9.3 8.6 9.5 9.6 9.5 9.8 9.6 10.8 9.3 9.7 10.5 9.7 9.8 10.9 12.0 10.9 10.1 8.6 9.6 9.6 10.1 9.5 7.8 7.4 7.6 7.7 8.2 8.4 8.8 9.3 8.8 8.9 7.3 7.9 8.9 8.8 7.9 7.3 7.9 8.4 8.4 8.2 7.7 8.1 8.1 7.4 nan 7.3 nan 7.9 8.7 9.2 9.1 9.3
9.2 8.6 9.8 10.0 10.0 9.2 10.1 11.7 10.0 11.8 10.3 9.4 9.6 9.2 9.8 9.6 10.5 10.0 10.7 9.8 9.8 8.7 8.5 8.4 8.3 8.1 8.9 9.2 8.8 9.0 9.6 8.6 9.2 9.1 8.5 8.5 8.6 8.4 8.7 8.7 8.6 8.6 8.6 8.8 8.9 8.8 8.8 9.3 9.4 9.5 10.0 9.8 9.7 9.8
9.2 9.1 9.1 10.0 9.0 8.7 9.8 9.3 9.4 9.4 9.5 9.3 9.4 9.3 9.9 9.8 11.2 11.5 10.3 9.7 9.7 10.2 nan 9.2 10.0 9.5 8.5 8.2 7.6 7.7 nan 8.4 9.0 9.2 9.3 9.0 8.6 9.1 9.0 8.9 8.5 8.7 8.9 9.1 9.2 9.6 9.7 9.5 9.7 9.7 10.1 9.9 10.1 10.6
8.6 9.0 8.9 9.8 8.5 9.0 9.2 8.6 10.3 8.3 9.4 9.7 10.6 10.5 10.0 10.9 12.9 11.8 12.9 10.0 8.7 9.2 9.5 8.8 8.7 8.3 10.1 10.3 9.0 8.4 nan 8.5 8.5 nan nan nan nan nan 8.7 8.9 9.0 9.3 9.8 9.9 9.8 9.8 10.1 10.0 9.7 10.4 10.3 10.1 10.0 10.3